Wind_Speed
17 18 18 18 18 18 18 17 17 18 16 16 17 17 17 17 17 18 18 18 18 18 18 19 19 21 22 24 25 26 28 30 32 34 35 36 37 38 39 40 42 44 46 49
16 16 16 16 16 16 16 16 16 16 15 14 15 17 16 16 17 18 18 19 19 19 19 20 21 22 23 25 26 27 29 30 32 34 35 36 37 38 39 41 42 44 47 49
14 15 14 14 14 14 14 14 13 13 14 15 15 17 17 16 17 17 18 19 20 20 21 22 23 25 26 27 28 29 30 32 33 34 36 37 38 39 41 43 45 46 48 50
13 13 12 12 12 12 12 13 12 11 12 14 16 19 19 17 17 17 18 20 20 21 23 24 26 28 29 30 31 31 32 33 34 35 37 38 39 41 43 45 46 48 50 52
13 12 12 12 12 12 12 13 12 11 12 14 16 19 21 20 19 19 20 21 22 23 25 27 28 29 30 31 32 32 33 34 35 36 38 39 41 42 44 46 48 51 53 55
13 12 12 12 12 12 13 14 14 13 14 15 16 19 22 23 23 23 23 24 24 24 25 27 28 29 30 31 32 33 34 34 36 37 38 40 42 43 45 47 49 51 53 56
13 13 13 13 13 14 14 15 16 16 16 17 19 20 23 25 26 26 26 26 25 25 25 26 28 29 29 30 31 31 32 33 34 35 36 38 40 41 43 45 47 49 51 54
14 14 14 14 15 15 16 17 19 20 20 20 22 23 25 25 26 27 26 25 25 25 25 25 26 27 28 28 29 29 30 31 33 34 36 37 39 40 42 44 46 48 50 52
16 15 16 16 17 17 18 19 21 24 25 25 24 24 26 27 27 25 24 24 23 23 23 24 26 27 27 28 29 30 31 33 35 37 38 40 42 44 45 47 49 51 53 54
18 17 17 18 19 20 21 22 24 26 28 28 26 25 27 26 25 24 23 22 22 22 23 25 26 27 28 29 31 32 34 36 38 40 42 44 46 48 50 52 54 56 57 58
20 19 18 20 21 22 24 25 26 28 29 31 29 25 25 25 24 23 22 22 22 23 25 26 27 29 31 33 35 36 38 40 42 44 47 49 51 53 55 57 59 60 62 63
22 22 20 22 23 25 26 27 28 30 31 30 29 24 24 24 24 23 23 23 24 26 27 29 30 32 35 37 39 41 43 45 47 50 52 54 57 59 60 62 63 65 66 66
24 24 23 24 26 28 28 29 30 30 30 28 26 22 25 25 25 24 24 25 27 29 30 32 34 37 39 41 43 46 48 51 53 56 58 60 62 64 65 67 68 69 69 70
26 25 25 26 29 30 30 29 29 31 30 27 24 23 24 26 25 26 27 28 30 33 34 37 39 41 44 46 49 51 54 56 59 61 64 66 68 69 70 71 72 73 74 74
28 28 28 28 30 32 30 29 30 31 30 29 25 25 23 25 26 28 30 32 34 36 39 41 44 46 48 51 54 57 59 61 64 66 69 70 72 74 75 76 77 77 78 77
31 31 31 30 31 33 31 30 31 31 31 30 27 25 25 26 28 31 33 35 38 40 43 46 48 51 54 57 59 62 64 67 70 72 74 75 77 78 79 79 80 79 78 77
32 34 34 33 31 33 31 31 31 31 30 29 27 27 28 29 32 34 37 39 42 45 48 50 53 56 59 62 65 67 70 72 74 77 78 80 81 81 82 82 80 79 78 76
33 34 36 35 33 32 31 30 30 29 28 28 28 29 31 33 36 38 41 44 47 50 52 56 59 61 64 67 70 72 74 76 78 80 82 83 83 83 82 81 79 77 75 73
34 35 36 36 35 31 29 30 29 29 29 29 31 32 34 37 40 42 46 48 51 54 57 60 63 66 68 71 73 75 77 79 82 83 84 84 83 82 80 78 76 74 72 69
34 35 37 37 35 32 30 30 30 32 32 31 33 36 38 41 44 46 49 52 55 58 61 64 67 70 72 74 77 79 81 83 84 84 84 83 81 80 77 75 72 69 67 65
34 36 36 36 37 34 32 32 32 33 35 35 37 39 42 45 48 51 54 57 60 63 65 68 71 73 75 78 80 82 83 85 85 84 82 80 77 75 73 69 66 64 62 60
34 35 35 36 37 36 35 34 35 36 38 39 41 44 46 49 52 55 58 61 64 67 69 72 74 76 78 80 82 84 84 84 83 81 78 75 72 69 66 63 60 59 57 55
34 34 35 35 36 38 37 37 38 39 42 43 45 48 51 54 57 60 62 65 68 70 72 74 76 78 79 81 83 84 83 82 79 76 72 68 65 62 60 59 56 54 53 52
33 33 35 36 36 39 40 40 41 43 45 47 50 52 55 58 61 64 67 69 71 73 75 77 79 80 80 81 82 81 80 77 74 70 66 62 60 57 55 54 53 51 50 48
32 34 37 38 38 41 42 43 45 47 49 51 54 57 60 63 66 68 70 72 73 75 77 78 80 81 81 81 79 77 74 71 67 63 60 57 56 54 52 50 49 48 46 46
32 37 39 39 39 42 43 45 48 50 52 55 58 61 64 67 69 71 72 73 75 76 78 79 80 79 79 77 74 70 67 65 62 59 56 54 52 51 49 47 45 44 44 44
Wind_Direction
261 262 263 265 267 271 274 275 275 276 276 274 276 278 283 287 290 292 294 295 294 293 291 288 287 287 286 285 283 282 280 278 277 277 275 274 273 272 272 272 272 272 272 272
261 262 264 265 267 269 270 271 273 277 280 281 282 284 287 289 293 296 297 297 297 296 295 293 292 290 288 287 285 283 281 280 278 277 277 276 276 275 274 273 272 271 272 273
259 261 262 263 265 266 268 270 274 280 287 289 288 288 291 293 296 297 296 296 296 295 294 293 293 292 290 288 286 285 283 281 280 278 278 277 277 277 276 276 275 275 275 276
252 253 256 259 261 265 270 275 279 281 284 287 291 292 294 296 296 293 291 292 293 292 292 293 293 293 292 291 289 287 286 284 283 282 281 280 280 279 278 278 278 277 277 276
247 249 251 255 260 266 272 278 282 283 284 287 290 293 296 298 295 292 291 291 292 293 294 295 296 295 294 292 291 290 289 288 287 286 285 284 283 283 282 281 280 279 279 279
245 249 254 259 265 270 276 280 283 285 288 289 291 293 295 297 296 296 296 296 297 297 298 298 297 296 294 294 293 293 293 292 292 291 289 288 287 286 285 285 284 283 282 281
245 251 256 262 268 273 277 283 287 289 291 293 294 293 293 296 297 298 300 299 299 299 299 299 298 298 298 298 298 299 299 298 298 297 296 295 294 293 291 290 289 287 286 285
248 254 260 264 269 274 278 284 289 293 295 297 297 297 297 297 297 298 297 297 298 299 299 298 299 301 302 303 304 303 303 303 303 302 302 301 300 299 297 296 294 292 290 289
252 256 262 266 269 274 279 284 290 293 295 297 298 298 295 295 296 295 295 297 298 299 299 300 303 304 305 305 305 305 305 305 305 305 305 304 302 301 300 298 297 296 294 293
255 256 259 264 270 275 282 287 291 294 296 298 299 298 296 296 295 295 296 297 298 298 299 301 303 303 303 304 305 305 304 305 305 305 305 304 303 302 301 299 298 297 295 294
256 258 259 265 271 278 285 289 292 293 294 296 298 300 297 296 296 296 297 296 296 296 298 299 300 301 302 304 305 305 305 305 306 305 305 304 303 302 301 300 298 297 295 294
258 260 263 268 274 279 284 288 290 291 293 294 295 299 293 293 292 293 295 294 294 295 296 298 299 300 302 304 305 305 306 306 306 305 304 304 303 302 301 300 298 297 295 294
259 263 267 270 275 280 284 287 288 287 287 288 290 294 290 289 290 292 294 294 294 296 297 298 300 302 303 304 305 306 306 306 305 305 304 303 303 302 301 300 299 297 296 295
261 265 269 274 279 282 284 286 286 286 287 286 288 287 284 286 289 292 293 293 295 297 298 300 302 304 305 305 305 305 305 305 305 304 304 303 303 302 301 300 299 298 297 296
263 267 271 275 279 282 284 285 284 285 286 287 288 285 282 284 288 290 292 293 295 297 299 302 303 304 305 305 304 305 305 305 305 304 304 304 303 303 302 301 300 299 298 297
266 271 274 276 278 280 281 282 281 282 283 285 286 285 285 287 288 289 291 293 295 298 301 303 304 304 304 304 304 305 305 305 305 305 304 304 303 303 302 302 301 300 298 297
269 274 276 276 277 278 280 280 279 279 280 282 284 286 286 287 287 289 292 295 297 300 302 303 303 304 304 305 305 306 306 306 305 305 305 305 304 304 303 303 301 300 298 296
269 272 275 277 277 278 280 278 277 277 278 281 284 285 286 287 289 292 295 297 299 301 302 303 304 305 306 306 306 306 306 306 306 306 306 306 305 305 304 303 301 300 298 296
270 272 274 276 278 276 276 276 276 276 279 283 285 286 287 289 291 294 297 300 302 303 304 304 305 305 306 306 306 306 307 307 307 307 307 307 306 305 304 303 301 300 298 296
271 272 274 276 277 277 275 274 275 277 280 283 285 287 289 291 293 296 298 300 301 302 303 304 305 306 306 306 307 307 308 308 308 308 308 308 307 306 305 303 301 300 298 296
268 270 272 274 275 277 276 276 277 280 283 285 287 288 290 292 295 297 299 301 302 303 305 305 306 307 307 307 308 308 309 309 309 309 309 308 307 306 305 303 302 300 299 298
266 268 270 272 274 276 277 278 280 283 285 287 288 290 292 294 297 299 301 302 304 304 305 306 306 307 308 309 309 309 310 310 310 310 309 309 308 306 305 304 303 302 301 300
265 266 268 270 273 276 278 280 283 285 286 288 290 292 295 297 299 301 302 303 304 305 305 306 307 308 309 310 310 310 310 311 311 311 310 309 308 307 306 305 304 304 303 302
264 266 268 270 272 275 279 282 285 286 288 291 293 295 298 300 301 302 303 304 304 305 306 307 308 309 310 310 310 311 311 312 312 312 311 310 309 308 307 306 305 304 304 303
265 266 267 269 273 277 281 284 286 288 291 294 296 298 299 300 301 302 303 304 305 306 307 308 309 310 310 311 311 311 312 312 312 313 312 311 310 309 308 306 306 306 305 304
265 266 268 271 275 279 283 285 288 291 293 295 296 297 299 300 301 302 303 304 305 306 307 308 309 310 311 311 312 312 312 312 313 314 313 312 311 310 309 308 307 307 307 305
Height
5842 5843 5842 5842 5842 5842 5841 5841 5840 5840 5839 5839 5837 5836 5835 5834 5832 5831 5829 5828 5826 5825 5823 5821 5818 5816 5814 5811 5810 5807 5805 5803 5801 5799 5797 5796 5795 5794 5793 5791 5789 5786 5783 5780
5838 5838 5838 5837 5837 5837 5837 5837 5836 5835 5834 5834 5832 5831 5831 5829 5828 5826 5824 5823 5821 5819 5816 5814 5812 5810 5808 5806 5803 5801 5799 5796 5794 5791 5789 5787 5785 5784 5782 5780 5778 5775 5772 5770
5833 5834 5833 5833 5833 5833 5832 5832 5832 5831 5830 5828 5828 5826 5826 5825 5824 5822 5819 5817 5815 5813 5810 5808 5806 5803 5801 5799 5796 5794 5791 5788 5786 5783 5781 5778 5776 5774 5772 5769 5766 5764 5762 5759
5829 5829 5829 5829 5829 5829 5828 5828 5828 5827 5826 5825 5824 5822 5821 5820 5819 5817 5815 5812 5810 5807 5804 5801 5799 5796 5793 5790 5788 5785 5783 5780 5777 5775 5772 5769 5767 5764 5761 5759 5756 5753 5750 5747
5825 5826 5826 5826 5826 5825 5824 5824 5824 5823 5822 5821 5820 5817 5816 5815 5813 5812 5809 5807 5804 5801 5798 5794 5791 5788 5785 5782 5779 5776 5773 5771 5768 5765 5763 5760 5757 5754 5751 5748 5745 5741 5737 5734
5822 5822 5822 5822 5822 5821 5820 5820 5820 5819 5818 5818 5816 5813 5811 5808 5806 5804 5802 5800 5797 5794 5790 5787 5783 5779 5776 5773 5770 5767 5765 5762 5759 5756 5753 5750 5746 5743 5740 5736 5733 5729 5725 5721
5818 5818 5818 5818 5817 5817 5817 5816 5815 5814 5813 5813 5810 5808 5806 5802 5799 5797 5794 5792 5789 5786 5783 5779 5775 5772 5769 5765 5762 5759 5756 5753 5749 5746 5743 5739 5735 5732 5728 5724 5720 5716 5712 5707
5814 5815 5814 5813 5813 5813 5812 5812 5811 5809 5807 5807 5804 5801 5799 5796 5792 5790 5787 5784 5781 5778 5775 5772 5768 5765 5761 5758 5755 5751 5748 5744 5741 5737 5733 5729 5725 5720 5716 5712 5707 5702 5697 5692
5809 5810 5809 5809 5808 5808 5807 5806 5805 5803 5800 5799 5798 5795 5792 5789 5786 5783 5780 5777 5774 5771 5768 5765 5761 5758 5754 5751 5747 5744 5740 5736 5732 5728 5723 5719 5714 5709 5704 5699 5694 5688 5683 5677
5804 5805 5805 5804 5803 5802 5802 5800 5799 5796 5793 5791 5790 5788 5785 5781 5778 5776 5773 5770 5767 5764 5761 5758 5755 5751 5747 5744 5740 5736 5732 5728 5723 5718 5713 5708 5703 5697 5692 5686 5680 5674 5668 5661
5798 5800 5800 5799 5798 5796 5796 5794 5791 5789 5787 5784 5781 5783 5777 5774 5771 5769 5766 5763 5761 5758 5755 5751 5747 5743 5739 5735 5731 5727 5722 5718 5713 5708 5702 5696 5690 5684 5678 5671 5665 5658 5651 5645
5792 5793 5793 5793 5792 5790 5789 5787 5785 5783 5780 5776 5774 5777 5770 5767 5764 5762 5760 5757 5754 5751 5747 5744 5740 5735 5731 5727 5722 5717 5712 5707 5701 5695 5689 5683 5676 5670 5663 5655 5648 5641 5634 5626
5786 5786 5787 5786 5787 5784 5782 5780 5777 5775 5772 5770 5768 5770 5763 5760 5757 5755 5753 5750 5746 5743 5739 5735 5731 5726 5722 5717 5712 5706 5701 5695 5688 5682 5675 5668 5661 5653 5646 5638 5630 5622 5614 5606
5779 5779 5780 5780 5777 5775 5774 5772 5769 5766 5764 5762 5762 5761 5757 5753 5751 5748 5745 5742 5738 5735 5730 5726 5722 5717 5712 5706 5700 5694 5688 5682 5675 5667 5660 5652 5644 5636 5627 5619 5610 5602 5593 5585
5771 5771 5771 5771 5769 5766 5765 5764 5761 5758 5756 5754 5755 5752 5751 5747 5744 5741 5737 5734 5730 5725 5721 5716 5711 5706 5701 5694 5688 5682 5675 5667 5659 5651 5643 5634 5625 5616 5607 5598 5589 5580 5571 5562
5762 5763 5762 5762 5760 5757 5757 5756 5753 5750 5748 5747 5746 5745 5742 5740 5736 5732 5729 5725 5721 5716 5711 5706 5700 5694 5688 5681 5674 5667 5659 5651 5642 5633 5624 5615 5606 5596 5586 5576 5567 5557 5548 5539
5755 5754 5753 5753 5752 5749 5749 5748 5745 5742 5740 5739 5738 5737 5734 5731 5727 5723 5719 5715 5710 5705 5700 5694 5688 5681 5674 5666 5659 5651 5642 5633 5624 5614 5604 5594 5584 5574 5564 5554 5544 5534 5525 5516
5747 5745 5742 5742 5743 5741 5743 5739 5736 5734 5733 5732 5730 5728 5725 5721 5717 5713 5708 5704 5699 5693 5687 5680 5673 5666 5658 5650 5642 5633 5624 5614 5604 5594 5583 5572 5562 5552 5541 5531 5521 5511 5501 5493
5738 5736 5733 5732 5731 5732 5733 5730 5728 5726 5725 5724 5721 5718 5715 5710 5706 5702 5697 5691 5686 5679 5673 5665 5658 5650 5642 5633 5624 5615 5605 5595 5584 5573 5562 5551 5539 5528 5518 5508 5498 5488 5479 5471
5727 5726 5725 5723 5721 5722 5725 5722 5719 5718 5717 5716 5712 5708 5704 5700 5696 5692 5686 5680 5673 5666 5659 5650 5642 5633 5624 5615 5605 5596 5585 5574 5564 5553 5541 5529 5516 5505 5495 5485 5476 5467 5458 5450
5718 5716 5715 5713 5711 5712 5714 5712 5711 5710 5708 5705 5701 5697 5693 5689 5684 5679 5672 5666 5658 5651 5642 5634 5625 5615 5605 5595 5586 5576 5565 5554 5543 5531 5520 5508 5496 5484 5474 5464 5456 5446 5439 5432
5708 5706 5706 5704 5702 5705 5703 5702 5701 5699 5696 5693 5689 5685 5681 5676 5671 5664 5657 5650 5642 5634 5626 5617 5608 5598 5587 5575 5565 5556 5545 5534 5523 5512 5501 5489 5477 5466 5455 5446 5438 5430 5422 5416
5698 5698 5696 5696 5696 5693 5692 5690 5689 5687 5684 5680 5676 5672 5667 5662 5656 5649 5642 5634 5626 5618 5608 5599 5590 5581 5570 5556 5544 5534 5524 5513 5503 5493 5481 5470 5460 5450 5439 5430 5423 5416 5408 5401
5688 5688 5687 5686 5685 5682 5680 5679 5677 5674 5670 5667 5662 5658 5652 5646 5640 5633 5626 5618 5609 5600 5591 5581 5572 5563 5553 5540 5527 5513 5503 5493 5484 5474 5464 5454 5444 5436 5427 5417 5409 5402 5395 5389
5679 5677 5675 5675 5674 5671 5670 5667 5664 5660 5657 5652 5648 5642 5637 5631 5624 5617 5609 5601 5592 5583 5573 5563 5553 5543 5533 5522 5510 5497 5485 5475 5467 5458 5449 5439 5430 5421 5414 5406 5398 5390 5384 5377
5668 5666 5664 5665 5664 5661 5659 5655 5651 5648 5644 5639 5634 5628 5622 5615 5608 5601 5593 5584 5575 5566 5556 5546 5535 5524 5514 5503 5493 5482 5471 5461 5451 5443 5435 5426 5417 5409 5401 5394 5388 5381 5374 5367